Location: Stoke Bliss
(52.2667°N, 2.5167°W)
Time: 21:40:22
(UTC+00:00)

Cosmos 2327 Rocket - Pass Details

Date: 03 March 2021
Orbit: 943 x 1009 km, 83.0° (Epoch: 16 April)

Event Time Altitude Azimuth Distance (km) Brightness Sun altitude
Rises 19:03:10 0° 185° (S) 3,708 7.6 -11.5°
Reaches altitude 10° 19:05:42 10° 184° (S) 2,755 6.9 -11.8°
Maximum altitude 19:12:02 83° 98° (E) 998 4.5 -12.8°
Drops below altitude 10° 19:18:18 10° 11° (NNE) 2,729 6.8 -13.8°
Sets 19:20:48 0° 11° (NNE) 3,671 7.5 -14.1°
